NORTHEAST SUFFOLK  -  Frost Advisory Frost Advisory        NORTHWEST SUFFOLK  -  Frost Advisory Frost Advisory        SOUTHEAST SUFFOLK  -  Frost Advisory Frost Advisory        SOUTHWEST SUFFOLK  -  Frost Advisory Frost Advisory      

Active alerts

Northwest Suffolk
  Details for Northwest Suffolk Frost Advisory
Southwest Suffolk
  Details for Southwest Suffolk Frost Advisory
Northeast Suffolk
  Details for Northeast Suffolk Frost Advisory
Southeast Suffolk
  Details for Southeast Suffolk Frost Advisory


WXM80 ListenWXM80 Stop

You find our weather info also at:

UK Metoffice

WeatherCloud

Weather Underground

Northeastern Weather Network

AWEKAS

Citizen Weather Observer Program (CWOP)

HAMweather, WeatherForYou, PWS Weather


Weather Underground History page Text

Daily Summary for February 26, 2016 Units:  English    Metric   Both
« Previous Day
Next Day »
Daily Weekly Monthly Yearly Custom
  High: Low: Average:
Temperature: 39.5 °F 27.6 °F 34.3 °F
Dew Point: 31.9 °F 11.9 °F 18.3 °F
Humidity: 74 % 40 % 52 %
Wind Speed: 16.0 mph 2.3 mph 8.5 mph
Wind Gust: 26.5 mph - -
Wind:- - WNW
Pressure: 30.07 in 29.50 in -
Precipitation: 0.00 in    
Historical Graphs
 
 
Tabular Data for February 26, 2016
Time Temperature Dew Point Pressure Wind Wind Speed Wind Gust Humidity Rainfall Rate (Hourly)
00:03 39.4 °F 31.8 °F 29.50 in WSW 7.8 mph 17.3 mph 74 % 0.00 in
00:08 39.5 °F 31.9 °F 29.50 in WSW 8.6 mph 15.0 mph 74 % 0.00 in
00:13 39.5 °F 31.6 °F 29.51 in WSW 14.0 mph 19.6 mph 73 % 0.00 in
00:23 39.5 °F 30.5 °F 29.51 in WSW 8.9 mph 13.8 mph 70 % 0.00 in
00:28 39.4 °F 29.7 °F 29.51 in WNW 8.9 mph 21.0 mph 68 % 0.00 in
00:38 39.3 °F 28.5 °F 29.52 in WNW 12.8 mph 19.6 mph 65 % 0.00 in
00:43 39.2 °F 28.4 °F 29.53 in WNW 8.6 mph 12.0 mph 65 % 0.00 in
00:49 39.2 °F 28.0 °F 29.52 in NW 5.2 mph 11.5 mph 64 % 0.00 in
00:54 39.1 °F 27.9 °F 29.53 in WSW 6.9 mph 11.5 mph 64 % 0.00 in
00:59 39.0 °F 27.8 °F 29.53 in WNW 10.6 mph 22.0 mph 64 % 0.00 in
01:04 38.8 °F 27.7 °F 29.54 in WSW 8.1 mph 16.1 mph 64 % 0.00 in
01:09 38.7 °F 27.6 °F 29.54 in WNW 3.9 mph 9.2 mph 64 % 0.00 in
01:14 38.7 °F 27.9 °F 29.54 in WSW 4.0 mph 16.1 mph 65 % 0.00 in
01:19 38.6 °F 27.8 °F 29.54 in WNW 4.9 mph 11.5 mph 65 % 0.00 in
01:24 38.5 °F 28.1 °F 29.55 in West 2.9 mph 6.9 mph 66 % 0.00 in
01:29 38.4 °F 28.0 °F 29.55 in West 2.3 mph 9.2 mph 66 % 0.00 in
01:55 37.3 °F 23.9 °F 29.56 in WSW 8.7 mph 19.6 mph 58 % 0.00 in
02:00 37.1 °F 24.1 °F 29.57 in NW 7.9 mph 12.7 mph 59 % 0.00 in
02:05 36.9 °F 24.3 °F 29.57 in West 7.3 mph 11.5 mph 60 % 0.00 in
02:10 36.8 °F 24.2 °F 29.57 in WSW 4.5 mph 8.0 mph 60 % 0.00 in
02:15 36.7 °F 24.5 °F 29.57 in WNW 6.8 mph 15.0 mph 61 % 0.00 in
02:20 36.5 °F 23.9 °F 29.56 in WNW 8.1 mph 18.4 mph 60 % 0.00 in
02:31 36.4 °F 24.2 °F 29.58 in WNW 8.2 mph 13.8 mph 61 % 0.00 in
02:36 36.3 °F 24.5 °F 29.58 in WNW 7.9 mph 11.5 mph 62 % 0.00 in
02:46 36.2 °F 24.4 °F 29.58 in NNW 7.8 mph 19.6 mph 62 % 0.00 in
02:51 36.1 °F 24.3 °F 29.58 in NW 9.2 mph 16.1 mph 62 % 0.00 in
02:56 36.1 °F 25.1 °F 29.58 in West 9.0 mph 15.0 mph 64 % 0.00 in
03:01 36.0 °F 24.6 °F 29.58 in WNW 9.5 mph 19.6 mph 63 % 0.00 in
03:06 36.0 °F 25.0 °F 29.58 in WSW 8.9 mph 17.3 mph 64 % 0.00 in
03:11 35.9 °F 24.9 °F 29.59 in NW 8.9 mph 19.6 mph 64 % 0.00 in
03:16 35.9 °F 24.9 °F 29.59 in NW 9.9 mph 13.8 mph 64 % 0.00 in
03:22 35.8 °F 24.8 °F 29.59 in WNW 5.6 mph 11.5 mph 64 % 0.00 in
03:27 35.8 °F 25.2 °F 29.59 in West 11.6 mph 14.0 mph 65 % 0.00 in
03:32 35.9 °F 25.6 °F 29.59 in NW 4.6 mph 16.1 mph 66 % 0.00 in
03:37 35.9 °F 25.3 °F 29.59 in WNW 8.7 mph 16.1 mph 65 % 0.00 in
03:42 35.9 °F 25.6 °F 29.60 in WNW 8.3 mph 15.0 mph 66 % 0.00 in
03:47 35.9 °F 25.6 °F 29.60 in West 9.5 mph 17.3 mph 66 % 0.00 in
03:52 35.9 °F 25.6 °F 29.60 in NW 6.6 mph 15.0 mph 66 % 0.00 in
03:57 35.9 °F 26.0 °F 29.60 in West 8.5 mph 15.0 mph 67 % 0.00 in
04:02 35.9 °F 25.6 °F 29.60 in WNW 9.6 mph 19.6 mph 66 % 0.00 in
04:13 35.9 °F 26.4 °F 29.61 in WSW 6.4 mph 9.2 mph 68 % 0.00 in
04:18 35.9 °F 26.4 °F 29.60 in WNW 7.1 mph 18.4 mph 68 % 0.00 in
04:23 35.8 °F 25.5 °F 29.61 in WSW 8.4 mph 22.0 mph 66 % 0.00 in
04:28 35.8 °F 25.5 °F 29.61 in NNW 10.9 mph 17.0 mph 66 % 0.00 in
04:38 35.7 °F 24.7 °F 29.62 in WSW 14.7 mph 23.0 mph 64 % 0.00 in
04:43 35.7 °F 24.7 °F 29.62 in West 9.1 mph 18.4 mph 64 % 0.00 in
04:48 35.6 °F 24.2 °F 29.63 in West 8.6 mph 21.9 mph 63 % 0.00 in
05:04 35.0 °F 24.0 °F 29.64 in West 8.6 mph 20.7 mph 64 % 0.00 in
05:09 34.8 °F 23.9 °F 29.64 in WNW 7.4 mph 18.4 mph 64 % 0.00 in
05:14 34.7 °F 24.1 °F 29.64 in WNW 8.2 mph 17.3 mph 65 % 0.00 in
05:19 34.6 °F 24.0 °F 29.64 in WSW 9.6 mph 14.0 mph 65 % 0.00 in
05:24 34.5 °F 23.6 °F 29.64 in West 9.3 mph 19.6 mph 64 % 0.00 in
05:29 34.4 °F 23.5 °F 29.64 in WNW 6.5 mph 12.7 mph 64 % 0.00 in
05:34 34.2 °F 23.7 °F 29.65 in WSW 9.6 mph 18.4 mph 65 % 0.00 in
05:39 34.0 °F 23.1 °F 29.65 in West 9.8 mph 20.0 mph 64 % 0.00 in
05:44 33.9 °F 22.6 °F 29.66 in West 13.2 mph 20.7 mph 63 % 0.00 in
05:49 33.7 °F 22.8 °F 29.66 in WNW 5.9 mph 15.0 mph 64 % 0.00 in
05:55 33.6 °F 22.3 °F 29.66 in NW 7.0 mph 20.7 mph 63 % 0.00 in
06:00 33.5 °F 21.9 °F 29.66 in WSW 11.7 mph 13.0 mph 62 % 0.00 in
06:05 33.3 °F 21.3 °F 29.66 in West 8.5 mph 19.6 mph 61 % 0.00 in
06:10 33.2 °F 21.6 °F 29.67 in West 7.6 mph 19.6 mph 62 % 0.00 in
06:15 33.1 °F 21.5 °F 29.68 in NW 11.8 mph 19.6 mph 62 % 0.00 in
06:20 33.1 °F 21.1 °F 29.68 in WSW 11.0 mph 19.6 mph 61 % 0.00 in
06:25 33.0 °F 21.0 °F 29.67 in West 9.0 mph 16.1 mph 61 % 0.00 in
06:35 32.8 °F 21.2 °F 29.69 in NW 10.9 mph 19.6 mph 62 % 0.00 in
06:40 32.7 °F 21.5 °F 29.69 in WNW 9.2 mph 12.0 mph 63 % 0.00 in
06:46 32.6 °F 21.4 °F 29.69 in WNW 9.6 mph 18.4 mph 63 % 0.00 in
06:51 32.6 °F 21.4 °F 29.69 in West 9.9 mph 19.6 mph 63 % 0.00 in
06:56 32.6 °F 20.2 °F 29.70 in NW 12.0 mph 20.7 mph 60 % 0.00 in
07:01 32.7 °F 20.3 °F 29.70 in WNW 13.2 mph 24.0 mph 60 % 0.00 in
07:06 32.8 °F 20.0 °F 29.71 in NW 15.0 mph 21.9 mph 59 % 0.00 in
07:16 32.8 °F 20.4 °F 29.72 in SW 13.1 mph 19.6 mph 60 % 0.00 in
07:21 32.7 °F 19.9 °F 29.72 in West 10.4 mph 19.0 mph 59 % 0.00 in
07:26 32.7 °F 19.9 °F 29.72 in WNW 7.3 mph 17.3 mph 59 % 0.00 in
07:31 32.7 °F 20.3 °F 29.73 in WNW 13.1 mph 16.1 mph 60 % 0.00 in
07:37 32.6 °F 20.2 °F 29.73 in WNW 12.2 mph 18.4 mph 60 % 0.00 in
07:42 32.7 °F 20.3 °F 29.74 in WSW 11.7 mph 21.9 mph 60 % 0.00 in
07:47 32.7 °F 20.3 °F 29.73 in West 11.9 mph 18.4 mph 60 % 0.00 in
07:57 32.8 °F 20.0 °F 29.74 in WSW 9.7 mph 19.6 mph 59 % 0.00 in
08:02 32.8 °F 20.0 °F 29.74 in WNW 7.6 mph 19.6 mph 59 % 0.00 in
08:07 33.0 °F 20.2 °F 29.75 in NW 10.6 mph 20.7 mph 59 % 0.00 in
08:12 33.2 °F 20.8 °F 29.75 in WSW 10.6 mph 21.9 mph 60 % 0.00 in
08:17 33.3 °F 20.1 °F 29.75 in WSW 11.5 mph 20.7 mph 58 % 0.00 in
08:23 33.4 °F 20.6 °F 29.75 in West 10.4 mph 17.3 mph 59 % 0.00 in
08:28 33.4 °F 19.8 °F 29.75 in WNW 12.7 mph 17.3 mph 57 % 0.00 in
08:33 33.4 °F 20.2 °F 29.75 in WSW 8.9 mph 20.7 mph 58 % 0.00 in
08:38 33.4 °F 19.8 °F 29.76 in WNW 10.0 mph 16.1 mph 57 % 0.00 in
08:43 33.5 °F 19.9 °F 29.76 in WNW 9.4 mph 20.7 mph 57 % 0.00 in
08:48 33.5 °F 19.5 °F 29.76 in WSW 16.0 mph 26.5 mph 56 % 0.00 in
08:53 33.7 °F 19.7 °F 29.77 in WNW 10.8 mph 19.0 mph 56 % 0.00 in
08:58 33.8 °F 20.2 °F 29.77 in WNW 10.8 mph 16.1 mph 57 % 0.00 in
09:03 34.1 °F 20.0 °F 29.77 in WNW 8.7 mph 14.0 mph 56 % 0.00 in
09:08 34.2 °F 19.7 °F 29.78 in WNW 9.1 mph 22.0 mph 55 % 0.00 in
09:14 34.2 °F 18.8 °F 29.78 in NNW 8.3 mph 19.6 mph 53 % 0.00 in
09:19 34.4 °F 19.5 °F 29.79 in NW 10.8 mph 19.6 mph 54 % 0.00 in
09:24 34.6 °F 19.2 °F 29.79 in WSW 12.9 mph 21.9 mph 53 % 0.00 in
09:29 34.8 °F 19.4 °F 29.79 in WNW 7.9 mph 13.8 mph 53 % 0.00 in
09:34 35.0 °F 19.1 °F 29.79 in NW 9.7 mph 13.8 mph 52 % 0.00 in
09:39 34.9 °F 18.6 °F 29.79 in NNW 9.2 mph 18.4 mph 51 % 0.00 in
09:44 34.9 °F 19.0 °F 29.79 in NW 8.8 mph 13.8 mph 52 % 0.00 in
09:54 35.3 °F 18.5 °F 29.80 in WNW 8.9 mph 13.8 mph 50 % 0.00 in
09:59 35.3 °F 19.4 °F 29.80 in West 9.2 mph 17.3 mph 52 % 0.00 in
10:05 35.6 °F 19.2 °F 29.80 in NW 6.8 mph 18.0 mph 51 % 0.00 in
10:10 35.7 °F 18.4 °F 29.80 in WNW 11.6 mph 19.6 mph 49 % 0.00 in
10:20 35.8 °F 18.5 °F 29.81 in WSW 10.1 mph 18.4 mph 49 % 0.00 in
10:25 36.0 °F 18.2 °F 29.81 in NW 11.7 mph 16.1 mph 48 % 0.00 in
10:30 36.1 °F 18.3 °F 29.81 in NW 8.0 mph 15.0 mph 48 % 0.00 in
10:35 36.4 °F 19.0 °F 29.81 in WSW 9.2 mph 19.6 mph 49 % 0.00 in
10:40 36.7 °F 18.8 °F 29.82 in NW 11.4 mph 19.6 mph 48 % 0.00 in
10:45 36.9 °F 18.0 °F 29.82 in WNW 8.9 mph 18.4 mph 46 % 0.00 in
10:50 36.9 °F 18.0 °F 29.82 in NW 9.4 mph 12.0 mph 46 % 0.00 in
10:56 36.8 °F 18.4 °F 29.83 in WSW 10.9 mph 19.6 mph 47 % 0.00 in
11:01 36.9 °F 18.0 °F 29.83 in WNW 6.4 mph 18.4 mph 46 % 0.00 in
11:06 37.0 °F 18.1 °F 29.83 in NW 9.7 mph 23.0 mph 46 % 0.00 in
11:11 36.8 °F 16.9 °F 29.83 in West 12.4 mph 19.6 mph 44 % 0.00 in
11:16 36.9 °F 17.5 °F 29.83 in WNW 7.2 mph 17.3 mph 45 % 0.00 in
11:21 37.1 °F 18.2 °F 29.83 in WSW 8.2 mph 18.4 mph 46 % 0.00 in
11:26 37.2 °F 17.8 °F 29.83 in NW 12.0 mph 18.4 mph 45 % 0.00 in
11:36 37.3 °F 17.9 °F 29.83 in NW 11.3 mph 17.3 mph 45 % 0.00 in
11:41 37.3 °F 18.4 °F 29.83 in West 9.9 mph 16.0 mph 46 % 0.00 in
11:47 37.3 °F 17.4 °F 29.83 in WSW 8.1 mph 19.6 mph 44 % 0.00 in
11:52 37.2 °F 17.3 °F 29.83 in West 11.5 mph 17.3 mph 44 % 0.00 in
11:57 37.1 °F 17.7 °F 29.83 in West 8.7 mph 20.7 mph 45 % 0.00 in
12:02 37.4 °F 19.0 °F 29.83 in NW 7.4 mph 12.7 mph 47 % 0.00 in
12:07 37.4 °F 17.4 °F 29.83 in WNW 12.6 mph 23.0 mph 44 % 0.00 in
12:12 37.3 °F 16.8 °F 29.83 in NW 10.0 mph 22.0 mph 43 % 0.00 in
12:17 37.1 °F 15.5 °F 29.83 in WNW 7.1 mph 19.6 mph 41 % 0.00 in
12:22 37.1 °F 16.1 °F 29.84 in WNW 9.0 mph 17.0 mph 42 % 0.00 in
12:27 37.3 °F 16.3 °F 29.84 in West 10.8 mph 18.4 mph 42 % 0.00 in
12:32 37.3 °F 17.4 °F 29.83 in WNW 7.8 mph 11.5 mph 44 % 0.00 in
12:38 37.4 °F 16.4 °F 29.83 in WNW 11.2 mph 17.0 mph 42 % 0.00 in
12:43 37.4 °F 16.9 °F 29.83 in WSW 10.2 mph 17.3 mph 43 % 0.00 in
12:48 37.4 °F 15.8 °F 29.83 in West 8.6 mph 13.0 mph 41 % 0.00 in
12:53 37.6 °F 16.5 °F 29.83 in WNW 4.8 mph 9.2 mph 42 % 0.00 in
13:03 37.9 °F 16.3 °F 29.83 in West 12.9 mph 23.0 mph 41 % 0.00 in
13:08 37.8 °F 16.7 °F 29.83 in WSW 9.6 mph 17.3 mph 42 % 0.00 in
13:13 37.8 °F 16.2 °F 29.82 in West 8.6 mph 19.6 mph 41 % 0.00 in
13:18 37.9 °F 15.7 °F 29.82 in WNW 9.1 mph 13.8 mph 40 % 0.00 in
13:23 37.9 °F 16.8 °F 29.83 in WNW 6.6 mph 19.6 mph 42 % 0.00 in
13:29 38.0 °F 16.9 °F 29.83 in West 10.4 mph 14.0 mph 42 % 0.00 in
13:34 38.0 °F 16.4 °F 29.83 in WNW 6.3 mph 13.8 mph 41 % 0.00 in
13:39 38.0 °F 16.4 °F 29.83 in NW 11.1 mph 18.4 mph 41 % 0.00 in
13:44 38.0 °F 16.9 °F 29.83 in West 5.0 mph 11.5 mph 42 % 0.00 in
13:49 38.3 °F 16.6 °F 29.83 in NNW 9.3 mph 19.6 mph 41 % 0.00 in
13:54 38.3 °F 17.2 °F 29.83 in WNW 9.3 mph 18.4 mph 42 % 0.00 in
13:59 38.0 °F 15.8 °F 29.83 in NNW 9.6 mph 19.6 mph 40 % 0.00 in
14:04 37.8 °F 16.2 °F 29.83 in WSW 7.6 mph 15.0 mph 41 % 0.00 in
14:09 37.9 °F 17.4 °F 29.83 in WNW 10.4 mph 17.0 mph 43 % 0.00 in
14:14 37.8 °F 16.2 °F 29.84 in WNW 8.8 mph 15.0 mph 41 % 0.00 in
14:25 37.4 °F 16.9 °F 29.84 in NNW 10.2 mph 15.0 mph 43 % 0.00 in
14:30 37.3 °F 17.4 °F 29.84 in NNW 6.0 mph 7.0 mph 44 % 0.00 in
14:35 37.3 °F 17.4 °F 29.84 in NW 8.5 mph 17.3 mph 44 % 0.00 in
14:40 37.2 °F 16.2 °F 29.85 in WNW 10.1 mph 19.6 mph 42 % 0.00 in
14:45 37.1 °F 16.6 °F 29.85 in WNW 5.6 mph 11.5 mph 43 % 0.00 in
14:50 37.0 °F 16.0 °F 29.85 in NW 5.1 mph 13.0 mph 42 % 0.00 in
14:55 36.7 °F 15.7 °F 29.85 in North 7.2 mph 15.0 mph 42 % 0.00 in
15:00 36.5 °F 15.6 °F 29.85 in WNW 9.8 mph 16.0 mph 42 % 0.00 in
15:05 36.3 °F 15.9 °F 29.85 in West 9.8 mph 16.0 mph 43 % 0.00 in
15:11 36.2 °F 14.2 °F 29.85 in West 12.4 mph 18.4 mph 40 % 0.00 in
15:16 36.2 °F 15.8 °F 29.86 in WSW 8.7 mph 13.8 mph 43 % 0.00 in
15:21 36.1 °F 14.6 °F 29.86 in WSW 7.5 mph 26.5 mph 41 % 0.00 in
15:26 35.9 °F 15.0 °F 29.86 in West 5.8 mph 17.0 mph 42 % 0.00 in
15:41 35.9 °F 15.0 °F 29.86 in WNW 4.6 mph 11.5 mph 42 % 0.00 in
15:51 35.7 °F 13.7 °F 29.87 in WNW 11.0 mph 17.3 mph 40 % 0.00 in
15:56 35.6 °F 14.2 °F 29.88 in WNW 6.5 mph 18.0 mph 41 % 0.00 in
16:02 35.5 °F 13.5 °F 29.88 in WNW 7.6 mph 13.8 mph 40 % 0.00 in
16:07 35.3 °F 13.3 °F 29.89 in NW 11.7 mph 19.6 mph 40 % 0.00 in
16:12 35.2 °F 13.8 °F 29.88 in West 10.1 mph 15.0 mph 41 % 0.00 in
16:17 35.1 °F 13.2 °F 29.88 in WSW 8.9 mph 14.0 mph 40 % 0.00 in
16:22 35.1 °F 13.7 °F 29.89 in WNW 7.4 mph 13.8 mph 41 % 0.00 in
16:27 35.0 °F 13.1 °F 29.89 in North 10.2 mph 13.8 mph 40 % 0.00 in
16:32 34.9 °F 13.5 °F 29.90 in NW 8.9 mph 19.6 mph 41 % 0.00 in
16:37 34.8 °F 14.0 °F 29.90 in WNW 10.4 mph 12.0 mph 42 % 0.00 in
16:42 34.6 °F 12.7 °F 29.90 in SW 9.8 mph 19.6 mph 40 % 0.00 in
16:47 34.4 °F 13.1 °F 29.90 in NNW 9.9 mph 15.0 mph 41 % 0.00 in
16:53 34.3 °F 13.0 °F 29.90 in West 6.9 mph 17.3 mph 41 % 0.00 in
16:58 34.2 °F 14.5 °F 29.91 in SW 8.5 mph 15.0 mph 44 % 0.00 in
17:03 34.1 °F 12.8 °F 29.91 in WNW 10.2 mph 19.6 mph 41 % 0.00 in
17:08 34.0 °F 13.8 °F 29.92 in WSW 7.8 mph 13.8 mph 43 % 0.00 in
17:13 33.9 °F 12.6 °F 29.92 in WNW 7.7 mph 18.4 mph 41 % 0.00 in
17:18 33.8 °F 12.6 °F 29.92 in NW 11.7 mph 17.3 mph 41 % 0.00 in
17:23 33.8 °F 14.7 °F 29.92 in NW 6.6 mph 15.0 mph 45 % 0.00 in
17:28 33.6 °F 14.5 °F 29.93 in NNW 7.9 mph 13.8 mph 45 % 0.00 in
17:33 33.5 °F 13.9 °F 29.94 in WNW 9.5 mph 15.0 mph 44 % 0.00 in
17:38 33.4 °F 13.3 °F 29.94 in NW 8.2 mph 19.6 mph 43 % 0.00 in
17:44 33.3 °F 13.7 °F 29.94 in NW 2.8 mph 9.2 mph 44 % 0.00 in
17:49 33.2 °F 13.1 °F 29.95 in WNW 8.2 mph 11.5 mph 43 % 0.00 in
17:54 33.2 °F 14.6 °F 29.95 in NW 2.7 mph 17.3 mph 46 % 0.00 in
17:59 33.1 °F 14.0 °F 29.96 in NW 7.4 mph 17.3 mph 45 % 0.00 in
18:04 33.0 °F 12.9 °F 29.96 in WNW 5.3 mph 11.5 mph 43 % 0.00 in
18:09 32.8 °F 13.2 °F 29.97 in West 6.7 mph 11.5 mph 44 % 0.00 in
18:24 32.4 °F 12.9 °F 29.98 in WNW 9.4 mph 14.0 mph 44 % 0.00 in
18:29 32.3 °F 13.3 °F 29.98 in NNW 9.5 mph 13.0 mph 45 % 0.00 in
18:35 32.3 °F 12.8 °F 29.99 in NW 8.7 mph 11.5 mph 44 % 0.00 in
18:40 32.1 °F 12.6 °F 29.99 in West 7.8 mph 11.5 mph 44 % 0.00 in
18:45 32.0 °F 13.5 °F 29.99 in WSW 6.5 mph 11.5 mph 46 % 0.00 in
18:50 31.8 °F 13.3 °F 29.99 in WSW 4.6 mph 10.4 mph 46 % 0.00 in
18:55 31.7 °F 13.7 °F 29.99 in WNW 8.9 mph 13.0 mph 47 % 0.00 in
19:00 31.6 °F 13.2 °F 29.99 in NW 7.6 mph 13.8 mph 46 % 0.00 in
19:05 31.5 °F 13.1 °F 30.00 in NW 7.7 mph 12.7 mph 46 % 0.00 in
19:10 31.5 °F 13.1 °F 30.00 in WSW 6.7 mph 12.7 mph 46 % 0.00 in
19:20 31.3 °F 12.9 °F 30.01 in NW 4.4 mph 15.0 mph 46 % 0.00 in
19:26 31.2 °F 12.8 °F 30.01 in West 8.6 mph 12.7 mph 46 % 0.00 in
19:31 31.2 °F 12.3 °F 30.01 in WNW 9.6 mph 13.8 mph 45 % 0.00 in
19:36 31.0 °F 13.1 °F 30.01 in West 7.7 mph 13.8 mph 47 % 0.00 in
19:41 30.9 °F 12.0 °F 30.01 in NW 8.7 mph 16.1 mph 45 % 0.00 in
19:46 30.8 °F 12.4 °F 30.01 in West 3.6 mph 11.5 mph 46 % 0.00 in
19:51 30.7 °F 12.8 °F 30.01 in WNW 6.6 mph 9.2 mph 47 % 0.00 in
19:56 30.7 °F 12.3 °F 30.01 in NW 5.6 mph 11.5 mph 46 % 0.00 in
20:06 30.5 °F 12.6 °F 30.02 in West 6.3 mph 14.0 mph 47 % 0.00 in
20:11 30.4 °F 12.5 °F 30.02 in WSW 5.1 mph 15.0 mph 47 % 0.00 in
20:17 30.3 °F 12.5 °F 30.03 in WSW 5.6 mph 9.2 mph 47 % 0.00 in
20:22 30.2 °F 11.9 °F 30.03 in WNW 8.3 mph 13.8 mph 46 % 0.00 in
20:27 30.2 °F 13.3 °F 30.04 in West 6.7 mph 11.5 mph 49 % 0.00 in
20:32 30.1 °F 12.7 °F 30.04 in West 8.3 mph 15.0 mph 48 % 0.00 in
20:37 30.1 °F 13.2 °F 30.04 in WNW 6.1 mph 12.7 mph 49 % 0.00 in
20:42 29.9 °F 12.6 °F 30.04 in WSW 7.0 mph 18.0 mph 48 % 0.00 in
20:47 29.8 °F 12.0 °F 30.04 in NW 10.3 mph 16.1 mph 47 % 0.00 in
20:52 29.7 °F 11.9 °F 30.04 in WNW 11.3 mph 18.4 mph 47 % 0.00 in
21:08 29.5 °F 12.2 °F 30.04 in NW 6.3 mph 11.5 mph 48 % 0.00 in
21:13 29.5 °F 12.2 °F 30.04 in NNW 7.4 mph 16.1 mph 48 % 0.00 in
21:18 29.4 °F 12.6 °F 30.05 in NW 3.4 mph 9.2 mph 49 % 0.00 in
21:28 29.3 °F 13.4 °F 30.05 in WSW 4.3 mph 9.2 mph 51 % 0.00 in
21:33 29.2 °F 12.4 °F 30.05 in NW 7.8 mph 12.7 mph 49 % 0.00 in
21:38 29.2 °F 12.8 °F 30.06 in WNW 10.6 mph 18.0 mph 50 % 0.00 in
21:48 29.0 °F 13.1 °F 30.05 in WNW 4.3 mph 10.4 mph 51 % 0.00 in
21:54 29.0 °F 13.1 °F 30.06 in NW 6.7 mph 11.5 mph 51 % 0.00 in
21:59 28.9 °F 13.0 °F 30.06 in North 9.2 mph 14.0 mph 51 % 0.00 in
22:04 28.9 °F 13.0 °F 30.06 in NW 7.3 mph 11.5 mph 51 % 0.00 in
22:09 28.8 °F 12.9 °F 30.05 in NW 7.2 mph 17.3 mph 51 % 0.00 in
22:14 28.7 °F 12.8 °F 30.05 in NW 7.4 mph 13.8 mph 51 % 0.00 in
22:19 28.7 °F 12.8 °F 30.05 in West 3.6 mph 10.4 mph 51 % 0.00 in
22:24 28.6 °F 13.2 °F 30.06 in West 8.4 mph 17.0 mph 52 % 0.00 in
22:29 28.6 °F 13.2 °F 30.06 in NNW 5.5 mph 9.2 mph 52 % 0.00 in
22:34 28.5 °F 13.9 °F 30.06 in WSW 8.4 mph 9.0 mph 54 % 0.00 in
22:39 28.5 °F 13.9 °F 30.06 in WNW 6.8 mph 13.8 mph 54 % 0.00 in
22:45 28.4 °F 13.4 °F 30.06 in WNW 8.2 mph 13.0 mph 53 % 0.00 in
22:50 28.4 °F 13.4 °F 30.06 in NW 4.5 mph 11.5 mph 53 % 0.00 in
22:55 28.3 °F 14.2 °F 30.07 in NNW 4.6 mph 10.4 mph 55 % 0.00 in
23:00 28.3 °F 14.2 °F 30.07 in NW 4.7 mph 9.2 mph 55 % 0.00 in
23:05 28.2 °F 13.7 °F 30.07 in NNW 8.3 mph 12.7 mph 54 % 0.00 in
23:10 28.1 °F 13.1 °F 30.06 in North 7.5 mph 15.0 mph 53 % 0.00 in
23:15 28.1 °F 14.0 °F 30.06 in WNW 5.0 mph 9.0 mph 55 % 0.00 in
23:20 28.0 °F 13.9 °F 30.07 in WNW 6.4 mph 15.0 mph 55 % 0.00 in
23:30 27.9 °F 13.4 °F 30.07 in NNW 6.9 mph 12.7 mph 54 % 0.00 in
23:36 27.9 °F 13.8 °F 30.07 in WNW 6.7 mph 13.8 mph 55 % 0.00 in
23:41 27.8 °F 13.3 °F 30.06 in NNW 9.8 mph 17.0 mph 54 % 0.00 in
23:46 27.7 °F 13.2 °F 30.06 in NW 7.8 mph 15.0 mph 54 % 0.00 in
23:51 27.6 °F 13.5 °F 30.07 in NNW 8.2 mph 13.8 mph 55 % 0.00 in
23:56 27.6 °F 13.9 °F 30.07 in NNW 4.7 mph 7.0 mph 56 % 0.00 in
Crab Meadow Weather
Compliments of Weather Underground - 2.75 mb

Script developed by  Jim McMurry - jmcmurry@mwt.net Adapted for the template by  Wim van der Kuil - Leuven-Template.eu

Weather Terms: Wind Advisory - Sustained winds of 30 mph or greater or gusts to 45 mph or greater for a duration of one hour or longer.